Content
SEND FEEDBACK

Daily
Averages
Monthly
Summary
United States of America

VOLCANO, HAWAII


Home > North America > United States > Hawaii
Elevation: 3800 feet     Latitude: 19 26N     Longitude: 155 16W

WEATHER
 
SELECT A DAY
Number of Records: 235,097;   Date Range: 1/1/95 - 10/30/14
 
SHARE

PRINT THIS DATA

[ ← Previous Day ]
WEATHER ALMANAC - OCTOBER 29, 2013
[ Next Day → ]
[ °C ]   °F
Weather ElementAverageHighLow
Temperature73.1 °F82 °F (10:53 am)66.9 °F (5:53 am)
Dewpoint66.1 °F69.1 °F (8:53 am)60.1 °F (11:53 pm)
Humidity79.6 %94 % (5:49 am)62 % (10:53 am)
Barometer30.03 in30.09 in (9:53 pm)29.98 in (2:53 pm)
Wind Speed5.7 mph9.2 mph (4:53 am)
Weather ElementAverage
Visibility9.5 mi
Wind DirectionSSE (155.3 °)

Weather ElementTotal
Precipitation0.48 in
Cooling Degree Days9.5 (Base 65)
Growing Degree Days24.5 (Base 50)
Averaged from 30 records on October 29, 2013
WEATHER CONDITIONS BREAKOUT
WIND DIRECTION BREAKOUT
WEATHER BY HOUR - OCTOBER 29, 2013
[ °C ]   °F
Local TimeTemperatureDewpointHumidityBarometerVisibilityWind DirectionWind SpeedGust SpeedPrecipitationEventsConditions
1:53 AM69.1 °F64.9 °F87 %30.02 in10.0 miSW (220°)3.5 mphScattered Clouds
2:53 AM69.1 °F64.9 °F87 %30.01 in10.0 miWSW (240°)6.9 mphScattered Clouds
3:53 AM68.0 °F66.0 °F93 %30.01 in10.0 miWSW (240°)5.8 mph0.24 inMostly Cloudy
4:12 AM69.1 °F66.0 °F90 %30.01 in10.0 miSW (230°)3.5 mphMostly Cloudy
4:26 AM68.0 °F64.9 °F90 %30.01 in10.0 miWSW (250°)5.8 mphMostly Cloudy
4:53 AM68.0 °F64.9 °F90 %30.01 in10.0 miWSW (250°)9.2 mphScattered Clouds
5:30 AM68.0 °F64.9 °F90 %30.03 in6.0 miSSW (200°)4.6 mph0.00 inRainRain
5:41 AM68.0 °F66.0 °F93 %30.03 in4.0 miWest (260°)8.1 mph0.05 inRainLight Rain
5:49 AM68.0 °F66.2 °F94 %30.03 in8.0 miWSW (240°)9.2 mph0.06 inRainLight Rain
5:53 AM66.9 °F64.9 °F93 %30.03 in10.0 miWSW (250°)9.2 mph0.06 inMostly Cloudy
6:53 AM66.9 °F64.0 °F90 %30.04 in10.0 miWSW (240°)6.9 mphScattered Clouds
7:53 AM68.0 °F66.0 °F93 %30.06 in9.0 miSouth (190°)8.1 mph0.00 inRainLight Rain
8:53 AM73.9 °F69.1 °F85 %30.06 in9.0 miWest (260°)8.1 mph0.07 inScattered Clouds
9:53 AM81.0 °F68.0 °F65 %30.07 in10.0 miCalmClear
10:53 AM82.0 °F68.0 °F62 %30.04 in10.0 miEast (80°)5.8 mphScattered Clouds
11:53 AM81.0 °F68.0 °F65 %30.02 in10.0 miNNE (30°)8.1 mphScattered Clouds
12:53 PM82.0 °F68.0 °F62 %30.00 in10.0 miNE (50°)8.1 mphMostly Cloudy
1:53 PM82.0 °F69.1 °F65 %29.99 in10.0 miNE (40°)5.8 mphMostly Cloudy
2:53 PM80.1 °F68.0 °F67 %29.98 in10.0 miEast (80°)8.1 mphMostly Cloudy
3:53 PM81.0 °F68.0 °F65 %29.99 in10.0 miNE (50°)4.6 mphMostly Cloudy
4:53 PM79.0 °F66.9 °F66 %30.00 in10.0 miNNE (20°)5.8 mphClear
5:53 PM77.0 °F68.0 °F74 %30.02 in10.0 miCalmMostly Cloudy
6:07 PM77.0 °F66.9 °F71 %30.03 in10.0 miCalmMostly Cloudy
6:20 PM77.0 °F66.9 °F71 %30.03 in10.0 miNNE (20°)3.5 mphPartly Cloudy
6:53 PM73.0 °F68.0 °F84 %30.04 in10.0 miWest (260°)4.6 mphClear
7:53 PM72.0 °F68.0 °F87 %30.07 in10.0 miWSW (250°)5.8 mphClear
8:53 PM71.1 °F64.9 °F81 %30.08 in10.0 miWSW (240°)8.1 mphScattered Clouds
9:53 PM69.1 °F62.1 °F78 %30.09 in10.0 miCalm0.00 inRainLight Rain
10:53 PM68.0 °F61.0 °F78 %30.08 in10.0 miWSW (240°)6.9 mph0.00 inClear
11:53 PM69.1 °F60.1 °F73 %30.06 in10.0 miSW (230°)8.1 mphClear
Hourly data recorded from PHTO, located miles away from Volcano, Hawaii







STORIES FROM OUR PARTNERS